�������l�o���
Date,Time,MP-1(��Sv/h),MP-2(��Sv/h),MP-3(��Sv/h),MP-4(��Sv/h),MP-5(��Sv/h),MP-6(��Sv/h),MP-7(��Sv/h),MP-8(��Sv/h),����,����(m/s),���J
2017/10/24,00:00,0.870,1.386,0.877,1.680,1.096,0.490,0.892,0.833,�k�k��,4.6,��
2017/10/24,00:10,0.870,1.385,0.875,1.680,1.096,0.489,0.890,0.831,�k�k��,5.1,��
2017/10/24,00:20,0.870,1.389,0.877,1.678,1.099,0.489,0.890,0.832,�k�k��,5.5,��
2017/10/24,00:30,0.870,1.389,0.874,1.682,1.097,0.490,0.890,0.833,�k�k��,7.1,��
2017/10/24,00:40,0.872,1.387,0.876,1.679,1.097,0.491,0.892,0.831,�k�k��,8.2,��
2017/10/24,00:50,0.869,1.388,0.878,1.682,1.100,0.489,0.890,0.829,�k��,8.0,��
2017/10/24,01:00,0.868,1.388,0.876,1.681,1.098,0.490,0.892,0.831,�k��,6.9,��
2017/10/24,01:10,0.870,1.388,0.875,1.679,1.098,0.490,0.892,0.832,�k�k��,6.4,��
2017/10/24,01:20,0.869,1.387,0.877,1.682,1.100,0.489,0.890,0.830,�k�k��,7.0,��
2017/10/24,01:30,0.871,1.385,0.877,1.682,1.100,0.489,0.892,0.832,�k�k��,8.1,��
2017/10/24,01:40,0.870,1.392,0.876,1.682,1.099,0.489,0.891,0.831,�k�k��,6.0,��
2017/10/24,01:50,0.871,1.388,0.877,1.680,1.099,0.491,0.892,0.831,�k�k��,7.0,��
2017/10/24,02:00,0.870,1.388,0.878,1.683,1.100,0.489,0.891,0.831,�k�k��,6.5,��
2017/10/24,02:10,0.871,1.389,0.879,1.681,1.098,0.489,0.890,0.831,�k�k��,4.8,��
2017/10/24,02:20,0.869,1.388,0.877,1.682,1.100,0.490,0.892,0.833,�k�k��,4.7,��
2017/10/24,02:30,0.871,1.388,0.879,1.679,1.101,0.490,0.892,0.831,�k,5.3,��
2017/10/24,02:40,0.871,1.389,0.878,1.682,1.101,0.488,0.892,0.831,�k�k��,5.1,��
2017/10/24,02:50,0.870,1.387,0.876,1.681,1.102,0.489,0.892,0.832,�k�k��,3.9,��
2017/10/24,03:00,0.870,1.389,0.879,1.682,1.103,0.490,0.893,0.833,�k��,3.9,��
2017/10/24,03:10,0.871,1.390,0.878,1.682,1.101,0.490,0.893,0.832,�k��,3.8,��
2017/10/24,03:20,0.870,1.389,0.877,1.682,1.101,0.490,0.889,0.832,�k�k��,4.8,��
2017/10/24,03:30,0.870,1.387,0.879,1.679,1.103,0.488,0.893,0.831,�k�k��,5.5,��
2017/10/24,03:40,0.868,1.389,0.878,1.682,1.102,0.489,0.892,0.832,�k�k��,3.6,��
2017/10/24,03:50,0.870,1.390,0.878,1.684,1.103,0.488,0.891,0.832,�k�k��,4.4,��
2017/10/24,04:00,0.870,1.389,0.879,1.685,1.102,0.488,0.891,0.831,�k�k��,4.0,��
2017/10/24,04:10,0.870,1.389,0.878,1.683,1.100,0.491,0.892,0.832,�k�k��,4.0,��
2017/10/24,04:20,0.871,1.388,0.879,1.681,1.102,0.488,0.892,0.831,�k�k��,2.9,��
2017/10/24,04:30,0.869,1.391,0.877,1.685,1.100,0.489,0.892,0.833,�k��,3.0,��
2017/10/24,04:40,0.872,1.391,0.879,1.682,1.102,0.489,0.892,0.832,�k��,2.3,��
2017/10/24,04:50,0.868,1.389,0.878,1.683,1.105,0.490,0.893,0.833,�k�k��,1.2,��
2017/10/24,05:00,0.869,1.390,0.876,1.682,1.102,0.489,0.892,0.832,�k��,2.0,��
2017/10/24,05:10,0.870,1.389,0.878,1.686,1.103,0.489,0.892,0.832,�k��,2.5,��
2017/10/24,05:20,0.869,1.392,0.877,1.683,1.104,0.489,0.891,0.832,���k��,2.6,��
2017/10/24,05:30,0.869,1.390,0.878,1.683,1.105,0.490,0.893,0.831,��,2.0,��
2017/10/24,05:40,0.871,1.391,0.878,1.681,1.104,0.489,0.892,0.832,��,2.0,��
2017/10/24,05:50,0.871,1.390,0.879,1.686,1.103,0.487,0.891,0.830,��,2.0,��
2017/10/24,06:00,0.868,1.388,0.879,1.683,1.103,0.489,0.892,0.831,��,1.4,��
2017/10/24,06:10,0.870,1.389,0.878,1.686,1.103,0.488,0.892,0.833,��,2.0,��
2017/10/24,06:20,0.871,1.391,0.876,1.688,1.105,0.488,0.893,0.831,���k��,2.0,��
2017/10/24,06:30,0.870,1.388,0.878,1.684,1.104,0.489,0.891,0.832,��,2.6,��
2017/10/24,06:40,0.871,1.387,0.878,1.686,1.104,0.489,0.892,0.833,���쐼,1.7,��
2017/10/24,06:50,0.870,1.390,0.880,1.685,1.106,0.488,0.894,0.832,���쐼,1.9,��
2017/10/24,07:00,0.868,1.388,0.879,1.685,1.108,0.489,0.891,0.832,��,2.0,��
2017/10/24,07:10,0.867,1.391,0.880,1.686,1.106,0.492,0.893,0.831,��,2.3,��
2017/10/24,07:20,0.872,1.390,0.880,1.685,1.105,0.488,0.892,0.831,���k��,2.3,��
2017/10/24,07:30,0.869,1.391,0.877,1.689,1.107,0.489,0.891,0.832,���k��,2.8,��
2017/10/24,07:40,0.871,1.394,0.880,1.687,1.107,0.490,0.893,0.833,���k��,2.0,��
2017/10/24,07:50,0.868,1.393,0.881,1.688,1.106,0.490,0.895,0.832,���k��,2.6,��
2017/10/24,08:00,0.871,1.390,0.879,1.688,1.106,0.490,0.894,0.832,�k��,3.2,��
2017/10/24,08:10,0.870,1.392,0.881,1.688,1.106,0.490,0.893,0.834,�k��,3.6,��
2017/10/24,08:20,0.872,1.394,0.880,1.687,1.106,0.490,0.894,0.833,�k��,3.9,��
2017/10/24,08:30,0.871,1.395,0.882,1.685,1.107,0.490,0.894,0.834,�k��,3.6,��
2017/10/24,08:40,0.869,1.391,0.879,1.686,1.109,0.489,0.893,0.833,�k��,2.9,��
2017/10/24,08:50,0.870,1.392,0.880,1.685,1.109,0.491,0.893,0.833,�k��,2.6,��
2017/10/24,09:00,0.873,1.395,0.883,1.683,1.107,0.492,0.894,0.833,�k�k��,2.2,��
2017/10/24,09:10,0.874,1.394,0.881,1.682,1.106,0.491,0.891,0.835,�k�k��,2.0,��
2017/10/24,09:20,0.873,1.395,0.883,1.685,1.112,0.489,0.892,0.832,�k�k��,2.3,��
2017/10/24,09:30,0.874,1.390,0.881,1.683,1.109,0.491,0.892,0.834,�k�k��,2.2,��
2017/10/24,09:40,0.875,1.393,0.880,1.682,1.110,0.490,0.892,0.836,�k�k��,2.0,��
2017/10/24,09:50,0.874,1.391,0.882,1.683,1.110,0.490,0.893,0.836,�k,2.0,��
2017/10/24,10:00,0.875,1.390,0.883,1.685,1.111,0.490,0.890,0.836,�k�k��,1.7,��
2017/10/24,10:10,0.873,1.391,0.882,1.686,1.113,0.489,0.892,0.835,�k,2.0,��
2017/10/24,10:20,0.875,1.393,0.882,1.685,1.112,0.490,0.890,0.834,�k�k��,1.9,��
2017/10/24,10:30,0.874,1.392,0.881,1.685,1.113,0.489,0.893,0.835,�k�k��,2.3,��
2017/10/24,10:40,0.876,1.394,0.885,1.686,1.112,0.491,0.893,0.835,�k��,2.0,��
2017/10/24,10:50,0.874,1.393,0.886,1.685,1.115,0.489,0.893,0.834,�k�k��,2.2,��
2017/10/24,11:00,0.873,1.394,0.886,1.685,1.111,0.491,0.893,0.835,�k��,2.3,��
2017/10/24,11:10,0.876,1.393,0.886,1.687,1.109,0.492,0.893,0.832,���k��,1.9,��
2017/10/24,11:20,0.876,1.393,0.884,1.684,1.105,0.490,0.894,0.835,�k�k��,2.0,��
2017/10/24,11:30,0.873,1.392,0.887,1.687,1.100,0.493,0.895,0.834,�k��,2.0,��
2017/10/24,11:40,0.874,1.393,0.884,1.685,1.099,0.490,0.893,0.837,���k��,2.5,��
2017/10/24,11:50,0.874,1.396,0.884,1.688,1.101,0.493,0.892,0.836,���k��,2.2,��
2017/10/24,12:00,0.874,1.395,0.887,1.692,1.101,0.492,0.894,0.836,��,2.3,��
2017/10/24,12:10,0.873,1.397,0.886,1.691,1.100,0.490,0.895,0.835,��,2.6,��
2017/10/24,12:20,0.875,1.401,0.885,1.690,1.102,0.491,0.895,0.833,��,1.9,��
2017/10/24,12:30,0.872,1.398,0.885,1.692,1.105,0.492,0.894,0.834,�쓌,2.6,��
2017/10/24,12:40,0.874,1.395,0.884,1.690,1.100,0.492,0.895,0.838,�쓌,1.7,��
2017/10/24,12:50,0.874,1.397,0.886,1.694,1.100,0.492,0.895,0.834,��쓌,1.9,��
2017/10/24,13:00,0.875,1.397,0.883,1.693,1.102,0.491,0.894,0.834,�쓌,2.3,��
2017/10/24,13:10,0.874,1.400,0.886,1.694,1.105,0.493,0.895,0.833,���쓌,2.6,��
2017/10/24,13:20,0.875,1.399,0.886,1.689,1.103,0.491,0.893,0.833,���쓌,2.6,��
2017/10/24,13:30,0.874,1.400,0.885,1.691,1.107,0.491,0.892,0.832,���쓌,3.5,��
2017/10/24,13:40,0.876,1.395,0.888,1.692,1.107,0.491,0.894,0.834,�쓌,3.1,��
2017/10/24,13:50,0.875,1.399,0.886,1.693,1.107,0.491,0.892,0.833,�쓌,3.6,��
2017/10/24,14:00,0.875,1.400,0.887,1.693,1.107,0.492,0.894,0.835,��쓌,2.5,��
2017/10/24,14:10,0.876,1.400,0.889,1.694,1.108,0.491,0.893,0.833,�쓌,2.3,��
2017/10/24,14:20,0.875,1.401,0.885,1.692,1.109,0.491,0.897,0.835,�쓌,3.4,��
2017/10/24,14:30,0.877,1.401,0.886,1.695,1.110,0.491,0.894,0.836,��쓌,3.3,��
2017/10/24,14:40,0.877,1.404,0.885,1.693,1.110,0.491,0.894,0.837,�쓌,4.2,��
2017/10/24,14:50,0.879,1.405,0.887,1.692,1.110,0.492,0.895,0.836,�쓌,3.3,��
2017/10/24,15:00,0.878,1.404,0.887,1.694,1.112,0.493,0.895,0.836,�쓌,3.0,��
2017/10/24,15:10,0.880,1.404,0.887,1.693,1.108,0.493,0.896,0.836,�쓌,3.3,��
2017/10/24,15:20,0.878,1.407,0.889,1.694,1.107,0.493,0.895,0.837,�쓌,2.8,��
2017/10/24,15:30,0.879,1.404,0.887,1.695,1.113,0.493,0.896,0.837,�쓌,3.4,��
2017/10/24,15:40,0.878,1.407,0.887,1.693,1.112,0.491,0.897,0.837,��쓌,3.6,��
2017/10/24,15:50,0.878,1.407,0.887,1.693,1.110,0.493,0.896,0.837,��쓌,3.6,��
2017/10/24,16:00,0.877,1.408,0.886,1.693,1.114,0.492,0.897,0.837,��쓌,4.5,��
2017/10/24,16:10,0.878,1.406,0.888,1.692,1.114,0.493,0.897,0.837,��쓌,4.2,��
2017/10/24,16:20,0.877,1.407,0.887,1.692,1.111,0.493,0.898,0.836,��쓌,3.9,��
2017/10/24,16:30,0.879,1.407,0.887,1.693,1.113,0.495,0.898,0.838,��쓌,2.9,��
2017/10/24,16:40,0.881,1.409,0.889,1.694,1.114,0.494,0.898,0.836,��쓌,4.3,��
2017/10/24,16:50,0.881,1.409,0.888,1.694,1.116,0.494,0.899,0.838,��쓌,4.6,��
2017/10/24,17:00,0.880,1.406,0.886,1.694,1.118,0.493,0.898,0.836,��,4.4,��
2017/10/24,17:10,0.880,1.404,0.888,1.695,1.115,0.493,0.898,0.837,��,5.2,��
2017/10/24,17:20,0.879,1.407,0.887,1.694,1.118,0.494,0.898,0.838,��쐼,4.8,��
2017/10/24,17:30,0.879,1.408,0.887,1.693,1.116,0.491,0.895,0.835,��쐼,4.6,��
2017/10/24,17:40,0.881,1.408,0.887,1.695,1.118,0.494,0.898,0.836,��,4.2,��
2017/10/24,17:50,0.879,1.408,0.887,1.692,1.117,0.494,0.897,0.837,��,4.8,��
2017/10/24,18:00,0.881,1.409,0.888,1.693,1.118,0.495,0.896,0.837,��쐼,4.4,��
2017/10/24,18:10,0.881,1.407,0.889,1.694,1.116,0.493,0.897,0.838,��쐼,4.4,��
2017/10/24,18:20,0.882,1.409,0.886,1.692,1.119,0.494,0.896,0.836,��,4.4,��
2017/10/24,18:30,0.881,1.409,0.887,1.691,1.118,0.495,0.898,0.835,��,4.7,��
2017/10/24,18:40,0.884,1.407,0.890,1.692,1.118,0.493,0.899,0.834,��쐼,4.3,��
2017/10/24,18:50,0.882,1.407,0.888,1.691,1.119,0.494,0.898,0.836,��쐼,4.1,��
2017/10/24,19:00,0.883,1.408,0.886,1.692,1.118,0.492,0.898,0.835,��쐼,4.8,��
2017/10/24,19:10,0.882,1.404,0.886,1.693,1.119,0.492,0.898,0.836,��쐼,4.6,��
2017/10/24,19:20,0.884,1.406,0.887,1.694,1.121,0.494,0.898,0.835,��쐼,4.9,��
2017/10/24,19:30,0.882,1.408,0.886,1.693,1.120,0.492,0.901,0.836,��쐼,5.2,��
2017/10/24,19:40,0.883,1.406,0.888,1.694,1.118,0.492,0.900,0.836,��쐼,5.1,��
2017/10/24,19:50,0.884,1.407,0.888,1.693,1.120,0.493,0.897,0.836,��쐼,5.2,��
2017/10/24,20:00,0.884,1.406,0.887,1.695,1.119,0.493,0.899,0.835,��,5.4,��
2017/10/24,20:10,0.881,1.407,0.886,1.695,1.119,0.493,0.899,0.836,��,5.9,��
2017/10/24,20:20,0.883,1.406,0.889,1.694,1.118,0.493,0.896,0.837,��쐼,5.2,��
2017/10/24,20:30,0.883,1.405,0.887,1.694,1.120,0.493,0.897,0.836,��쐼,5.4,��
2017/10/24,20:40,0.883,1.406,0.886,1.696,1.121,0.493,0.897,0.836,��쐼,5.9,��
2017/10/24,20:50,0.884,1.408,0.888,1.694,1.121,0.493,0.899,0.836,��쐼,5.6,��
2017/10/24,21:00,0.882,1.407,0.887,1.691,1.119,0.493,0.898,0.838,��쐼,5.5,��
2017/10/24,21:10,0.883,1.407,0.889,1.693,1.119,0.491,0.898,0.835,��쐼,5.5,��
2017/10/24,21:20,0.883,1.405,0.890,1.694,1.120,0.492,0.900,0.835,��쐼,5.5,��
2017/10/24,21:30,0.882,1.407,0.887,1.695,1.117,0.494,0.899,0.837,��쐼,5.2,��
2017/10/24,21:40,0.883,1.405,0.887,1.693,1.121,0.491,0.899,0.835,��쐼,4.7,��
2017/10/24,21:50,0.882,1.407,0.887,1.696,1.122,0.494,0.897,0.837,��쐼,4.6,��
2017/10/24,22:00,0.882,1.405,0.888,1.695,1.121,0.493,0.898,0.837,��쐼,4.2,��
2017/10/24,22:10,0.884,1.406,0.888,1.695,1.121,0.494,0.899,0.837,��쐼,4.4,��
2017/10/24,22:20,0.885,1.408,0.889,1.693,1.121,0.493,0.898,0.835,��쐼,4.1,��
2017/10/24,22:30,0.882,1.406,0.888,1.695,1.121,0.492,0.900,0.836,��쐼,3.7,��
2017/10/24,22:40,0.882,1.408,0.887,1.693,1.119,0.493,0.898,0.836,��쐼,5.0,��
2017/10/24,22:50,0.882,1.407,0.888,1.693,1.120,0.492,0.898,0.838,��쐼,4.6,��
2017/10/24,23:00,0.882,1.407,0.887,1.693,1.121,0.492,0.897,0.836,�쐼,4.4,��
2017/10/24,23:10,0.882,1.408,0.888,1.693,1.122,0.493,0.899,0.837,��쐼,5.0,��
2017/10/24,23:20,0.883,1.405,0.888,1.692,1.122,0.493,0.898,0.836,��쐼,4.8,��
2017/10/24,23:30,0.882,1.409,0.888,1.695,1.121,0.493,0.900,0.835,��쐼,4.8,��
2017/10/24,23:40,0.883,1.405,0.890,1.694,1.120,0.493,0.899,0.836,��쐼,4.3,��
2017/10/24,23:50,0.882,1.407,0.888,1.694,1.123,0.492,0.899,0.836,��쐼,4.4,��
